When you browse on this site, cookies collect data to enhance your experience and personalize the content and advertising you see.
Visit our Privacy Policy to learn more. By continuing to use the site, you agree to this use of cookies and data.
  • In Schweiz
  • Länderverzeichnis
  • Für 7 Tage
  • Wassertemperatur
  • Wetterkarte
  • Widgets
  • user-avatar
    Anmelden

    Stündliche Wetter Lyon

    Heute, 21 November, Donnerstag

    Zeit Temperatur Niederschläge Wind Luftdruck Luftfeuchtigkeit
    00:00 +5°C° 0 mm 2 m/S 742 mmHg 93%
    01:00 +6°C° 0 mm 1 m/S 741 mmHg 93%
    02:00 +5°C° 0 mm 1 m/S 741 mmHg 94%
    03:00 +5°C° 0 mm 1 m/S 741 mmHg 94%
    04:00 +5°C° 0 mm 1 m/S 741 mmHg 94%
    05:00 +5°C° 0 mm 1 m/S 741 mmHg 93%
    06:00 +5°C° 0 mm 1 m/S 741 mmHg 91%
    07:00 +6°C° 0 mm 1 m/S 740 mmHg 88%
    08:00 +7°C° 0 mm 1 m/S 740 mmHg 85%
    09:00 +8°C° 0 mm 1 m/S 740 mmHg 81%
    10:00 +9°C° 0 mm 1 m/S 740 mmHg 77%
    11:00 +9°C° 0 mm 2 m/S 740 mmHg 73%
    12:00 +10°C° 0 mm 2 m/S 739 mmHg 69%
    13:00 +10°C° 0 mm 2 m/S 739 mmHg 72%
    14:00 +10°C° 0 mm 2 m/S 739 mmHg 74%
    15:00 +10°C° 0 mm 2 m/S 739 mmHg 77%
    16:00 +9°C° 0.1 mm 2 m/S 739 mmHg 80%
    17:00 +9°C° 0.1 mm 2 m/S 739 mmHg 84%
    18:00 +8°C° 0.1 mm 2 m/S 740 mmHg 87%
    19:00 +8°C° 1.2 mm 2 m/S 740 mmHg 89%
    20:00 +8°C° 1.2 mm 2 m/S 740 mmHg 91%
    21:00 +8°C° 1.2 mm 2 m/S 740 mmHg 93%
    22:00 +8°C° 1.5 mm 2 m/S 741 mmHg 93%
    23:00 +8°C° 1.5 mm 2 m/S 741 mmHg 93%

    Morgen, 22 November, Freitag

    Zeit Temperatur Niederschläge Wind Luftdruck Luftfeuchtigkeit
    00:00 +8°C° 1.5 mm 1 m/S 741 mmHg 94%
    01:00 +8°C° 0.4 mm 1 m/S 741 mmHg 93%
    02:00 +8°C° 0.4 mm 1 m/S 740 mmHg 93%
    03:00 +8°C° 0.4 mm 1 m/S 740 mmHg 92%
    04:00 +8°C° 0.1 mm 1 m/S 740 mmHg 93%
    05:00 +8°C° 0.1 mm 1 m/S 740 mmHg 93%
    06:00 +8°C° 0.1 mm 1 m/S 740 mmHg 93%
    07:00 +7°C° 0 mm 2 m/S 739 mmHg 90%
    08:00 +8°C° 0 mm 2 m/S 739 mmHg 87%
    09:00 +8°C° 0 mm 2 m/S 739 mmHg 84%
    10:00 +10°C° 0 mm 3 m/S 738 mmHg 79%
    11:00 +11°C° 0 mm 4 m/S 737 mmHg 74%
    12:00 +12°C° 0 mm 5 m/S 737 mmHg 69%
    13:00 +12°C° 0 mm 5 m/S 736 mmHg 69%
    14:00 +12°C° 0 mm 4 m/S 735 mmHg 70%
    15:00 +11°C° 0 mm 3 m/S 734 mmHg 71%
    16:00 +11°C° 0 mm 3 m/S 734 mmHg 71%
    17:00 +10°C° 0 mm 3 m/S 734 mmHg 72%
    18:00 +10°C° 0 mm 3 m/S 734 mmHg 73%
    19:00 +10°C° 0 mm 3 m/S 733 mmHg 74%
    20:00 +10°C° 0 mm 3 m/S 733 mmHg 75%
    21:00 +9°C° 0 mm 3 m/S 733 mmHg 76%
    22:00 +9°C° 0.1 mm 3 m/S 732 mmHg 76%
    23:00 +9°C° 0.1 mm 3 m/S 731 mmHg 76%

    übermorgen, 23 November, Samstag

    Zeit Temperatur Niederschläge Wind Luftdruck Luftfeuchtigkeit
    00:00 +9°C° 0.1 mm 3 m/S 731 mmHg 77%
    01:00 +9°C° 0.1 mm 2 m/S 730 mmHg 76%
    02:00 +9°C° 0.1 mm 2 m/S 730 mmHg 75%
    03:00 +8°C° 0.1 mm 2 m/S 729 mmHg 74%
    04:00 +8°C° 0.1 mm 2 m/S 729 mmHg 75%
    05:00 +8°C° 0.1 mm 2 m/S 729 mmHg 75%
    06:00 +8°C° 0.1 mm 3 m/S 729 mmHg 76%
    07:00 +8°C° 0.3 mm 2 m/S 729 mmHg 77%
    08:00 +9°C° 0.3 mm 2 m/S 729 mmHg 78%
    09:00 +10°C° 0.3 mm 1 m/S 729 mmHg 80%
    10:00 +10°C° 0.9 mm 1 m/S 730 mmHg 81%
    11:00 +10°C° 0.9 mm 1 m/S 730 mmHg 83%
    12:00 +10°C° 0.9 mm 1 m/S 730 mmHg 85%
    13:00 +10°C° 0.7 mm 1 m/S 730 mmHg 87%
    14:00 +10°C° 0.7 mm 1 m/S 730 mmHg 88%
    15:00 +10°C° 0.7 mm 1 m/S 731 mmHg 90%
    16:00 +10°C° 0.8 mm 1 m/S 732 mmHg 91%
    17:00 +9°C° 0.8 mm 1 m/S 732 mmHg 92%
    18:00 +9°C° 0.8 mm 1 m/S 733 mmHg 93%
    19:00 +9°C° 0.1 mm 1 m/S 734 mmHg 93%
    20:00 +9°C° 0.1 mm 1 m/S 734 mmHg 93%
    21:00 +8°C° 0.1 mm 0 m/S 735 mmHg 93%
    22:00 +8°C° 0.1 mm 0 m/S 735 mmHg 93%
    23:00 +8°C° 0.1 mm 0 m/S 736 mmHg 93%

    24 November, Sonntag

    Zeit Temperatur Niederschläge Wind Luftdruck Luftfeuchtigkeit
    00:00 +8°C° 0.1 mm 0 m/S 736 mmHg 93%
    01:00 +9°C° 0.7 mm 1 m/S 737 mmHg 93%
    02:00 +9°C° 0.7 mm 1 m/S 737 mmHg 93%
    03:00 +8°C° 0.7 mm 2 m/S 738 mmHg 94%
    04:00 +8°C° 0.4 mm 2 m/S 738 mmHg 93%
    05:00 +8°C° 0.4 mm 2 m/S 739 mmHg 91%
    06:00 +8°C° 0.4 mm 2 m/S 740 mmHg 90%
    07:00 +8°C° 0 mm 2 m/S 740 mmHg 88%
    08:00 +8°C° 0 mm 2 m/S 741 mmHg 87%
    09:00 +8°C° 0 mm 2 m/S 742 mmHg 85%
    10:00 +9°C° 0 mm 2 m/S 742 mmHg 82%
    11:00 +9°C° 0 mm 2 m/S 742 mmHg 79%
    12:00 +10°C° 0 mm 2 m/S 743 mmHg 75%
    13:00 +10°C° 0 mm 2 m/S 743 mmHg 77%
    14:00 +10°C° 0 mm 2 m/S 743 mmHg 79%
    15:00 +9°C° 0 mm 2 m/S 744 mmHg 81%
    16:00 +10°C° 0 mm 1 m/S 744 mmHg 84%
    17:00 +9°C° 0 mm 1 m/S 745 mmHg 86%
    18:00 +8°C° 0 mm 1 m/S 745 mmHg 89%
    19:00 +8°C° 0 mm 1 m/S 745 mmHg 89%
    20:00 +7°C° 0 mm 1 m/S 746 mmHg 90%
    21:00 +7°C° 0 mm 1 m/S 746 mmHg 90%
    22:00 +7°C° 0 mm 1 m/S 746 mmHg 91%
    23:00 +6°C° 0 mm 0 m/S 746 mmHg 91%

    25 November, Montag

    Zeit Temperatur Niederschläge Wind Luftdruck Luftfeuchtigkeit
    00:00 +5°C° 0 mm 0 m/S 746 mmHg 91%
    01:00 +5°C° 0 mm 0 m/S 746 mmHg 91%
    02:00 +5°C° 0 mm 0 m/S 746 mmHg 90%
    03:00 +5°C° 0 mm 0 m/S 746 mmHg 90%
    04:00 +6°C° 0 mm 1 m/S 746 mmHg 90%
    05:00 +6°C° 0 mm 1 m/S 746 mmHg 90%
    06:00 +6°C° 0 mm 1 m/S 746 mmHg 89%
    07:00 +7°C° 0 mm 1 m/S 746 mmHg 87%
    08:00 +8°C° 0 mm 1 m/S 746 mmHg 84%
    09:00 +8°C° 0 mm 1 m/S 746 mmHg 81%
    10:00 +10°C° 0 mm 1 m/S 746 mmHg 78%
    11:00 +11°C° 0 mm 1 m/S 746 mmHg 74%
    12:00 +12°C° 0 mm 1 m/S 745 mmHg 70%
    13:00 +12°C° 0 mm 1 m/S 745 mmHg 72%
    14:00 +12°C° 0 mm 1 m/S 745 mmHg 74%
    15:00 +11°C° 0 mm 0 m/S 745 mmHg 75%
    16:00 +12°C° 0 mm 1 m/S 745 mmHg 77%
    17:00 +11°C° 0 mm 1 m/S 745 mmHg 78%
    18:00 +11°C° 0 mm 1 m/S 745 mmHg 79%
    19:00 +11°C° 0 mm 1 m/S 746 mmHg 79%
    20:00 +11°C° 0 mm 1 m/S 746 mmHg 79%
    21:00 +11°C° 0 mm 1 m/S 746 mmHg 79%
    22:00 +11°C° 0 mm 1 m/S 746 mmHg 80%
    23:00 +11°C° 0 mm 1 m/S 746 mmHg 81%

    26 November, Dienstag

    Zeit Temperatur Niederschläge Wind Luftdruck Luftfeuchtigkeit
    00:00 +11°C° 0 mm 1 m/S 746 mmHg 82%
    01:00 +11°C° 0 mm 1 m/S 745 mmHg 83%
    02:00 +11°C° 0 mm 1 m/S 745 mmHg 84%
    03:00 +11°C° 0 mm 1 m/S 745 mmHg 85%
    04:00 +11°C° 0 mm 1 m/S 745 mmHg 86%
    05:00 +10°C° 0 mm 1 m/S 745 mmHg 87%
    06:00 +10°C° 0 mm 1 m/S 745 mmHg 88%
    07:00 +11°C° 0 mm 1 m/S 745 mmHg 86%
    08:00 +11°C° 0 mm 1 m/S 745 mmHg 84%
    09:00 +12°C° 0 mm 1 m/S 745 mmHg 82%
    10:00 +12°C° 0 mm 2 m/S 744 mmHg 82%
    11:00 +13°C° 0 mm 2 m/S 744 mmHg 82%
    12:00 +13°C° 0 mm 2 m/S 743 mmHg 81%
    13:00 +14°C° 0 mm 2 m/S 743 mmHg 81%
    14:00 +14°C° 0 mm 2 m/S 743 mmHg 81%
    15:00 +15°C° 0 mm 2 m/S 743 mmHg 81%
    16:00 +14°C° 0 mm 2 m/S 743 mmHg 82%
    17:00 +13°C° 0 mm 3 m/S 743 mmHg 82%
    18:00 +13°C° 0 mm 3 m/S 743 mmHg 83%
    19:00 +13°C° 0 mm 3 m/S 743 mmHg 82%
    20:00 +13°C° 0 mm 3 m/S 743 mmHg 82%
    21:00 +13°C° 0 mm 3 m/S 743 mmHg 82%
    22:00 +13°C° 0 mm 3 m/S 742 mmHg 82%
    23:00 +13°C° 0 mm 3 m/S 742 mmHg 82%
    Mehr zeigen